{"data":{"norad_id":64149,"intl_designator":"2025-112D","name":"STARLINK-33924","alt_names":[],"object_type":"PAYLOAD","status":"ACTIVE","operator":null,"country":"US","launch_date":"2025-05-27","launch_site_code":"AFWTR","launch_vehicle":null,"mission":null,"orbit_class":"UNKNOWN","rcs_meters":null,"size_class":null,"mass_kg":null,"dimensions":null,"purposes":["comms"],"wikipedia_slug":null,"has_3d_model":false,"image_url":null,"decayed_at":null,"tle_current":{"epoch":"2026-09-20T20:56:27.470688Z","epoch_age_seconds":108188,"freshness":"FRESH","line1":"1 64149U 25112D   26263.87254017  .00018032  00000+0  55947-3 0  9994","line2":"2 64149  97.2855 310.9057 0001102  90.1823 269.9546 15.33448825 72805","mean_motion":15.33448825,"eccentricity":0.0001102,"inclination_deg":97.2855,"raan_deg":310.9057,"arg_perigee_deg":90.1823,"mean_anomaly_deg":269.9546,"bstar":0.00055947,"rev_number":7280,"period_min":93.905970419326,"perigee_km":464.77762169181,"apogee_km":466.285966294,"semimajor_km":6843.6687939929,"source":"CELESTRAK","updated_at":"2026-09-21T09:00:35.237993Z"}}}